Date,Time,Wetness (Wet Dry or Ice),Wind Speed (m/s),Temperature (C),Humidity (%),Pressure (mb),Radiation (W/m^2)
2019-11-23,03:05:00,DRY,4.25,8.85,25.5,775.00,1.5
2019-11-23,03:10:00,DRY,4.27,8.57,33.3,775.00,1.3
2019-11-23,03:15:00,DRY,3.25,8.50,34.0,774.50,1.1
2019-11-23,03:20:00,DRY,4.60,8.30,45.3,774.00,1.5
2019-11-23,03:25:00,DRY,5.50,8.55,52.0,774.00,1.2
2019-11-23,03:30:00,DRY,4.60,8.30,42.0,774.00,1.3
2019-11-23,03:35:00,DRY,4.40,8.25,43.5,774.00,1.3
2019-11-23,03:40:00,DRY,5.30,7.97,50.0,774.00,1.6
2019-11-23,03:45:00,DRY,5.60,8.20,57.0,774.00,1.4
2019-11-23,03:50:00,DRY,5.33,8.03,51.3,774.00,1.2
2019-11-23,03:55:00,DRY,4.70,7.95,46.0,774.00,1.1
2019-11-23,04:00:00,DRY,5.10,7.93,48.7,774.00,1.5
2019-11-23,04:05:00,DRY,4.70,7.75,49.5,774.00,1.6
2019-11-23,04:10:00,DRY,4.93,7.63,60.3,774.00,2.3
2019-11-23,04:15:00,DRY,5.10,7.70,62.0,774.00,1.2
2019-11-23,04:20:00,DRY,3.73,7.73,62.7,774.00,1.1
2019-11-23,04:25:00,DRY,4.75,7.55,63.0,774.00,0.8
2019-11-23,04:30:00,DRY,4.43,7.63,66.0,774.00,1.1
2019-11-23,04:35:00,DRY,4.00,7.70,65.0,774.00,2.3
2019-11-23,04:40:00,DRY,5.20,7.40,67.7,774.00,1.2
2019-11-23,04:45:00,DRY,4.95,7.50,71.0,774.00,1.2
2019-11-23,04:50:00,DRY,4.83,7.60,69.7,774.00,1.3
2019-11-23,04:55:00,DRY,5.10,7.50,74.0,774.00,1.3
2019-11-23,05:00:00,DRY,5.37,7.33,76.0,774.00,1.3
2019-11-23,05:05:00,DRY,6.05,7.45,75.0,774.00,0.8
2019-11-23,05:10:00,DRY,5.47,7.30,76.0,774.00,1.2
2019-11-23,05:15:00,DRY,5.75,7.25,75.5,774.00,1.4
2019-11-23,05:20:00,DRY,5.13,7.13,75.7,774.00,1.2
2019-11-23,05:25:00,DRY,4.45,7.05,77.0,774.00,1.2
2019-11-23,05:30:00,DRY,6.20,7.27,77.3,774.00,1.6
2019-11-23,05:35:00,DRY,5.80,7.35,77.0,774.00,1.3
2019-11-23,05:40:00,DRY,6.30,7.57,75.7,774.00,1.2
2019-11-23,05:45:00,DRY,6.20,7.75,75.0,774.00,1.1
2019-11-23,05:50:00,DRY,6.50,7.87,74.7,774.00,1.5
2019-11-23,05:55:00,DRY,6.60,7.85,74.5,774.00,0.8
2019-11-23,06:00:00,DRY,7.13,7.60,75.3,774.00,1.1
2019-11-23,06:05:00,DRY,6.35,7.60,75.5,774.00,1.2
2019-11-23,06:10:00,DRY,4.90,7.47,75.3,774.00,1.7
2019-11-23,06:15:00,DRY,6.60,7.50,77.0,774.00,1.7
2019-11-23,06:20:00,DRY,5.70,7.43,76.7,774.00,1.2
2019-11-23,06:25:00,DRY,6.55,7.45,78.5,774.00,1.1
2019-11-23,06:30:00,DRY,6.17,7.60,78.0,774.00,1.4
2019-11-23,06:35:00,DRY,5.60,7.35,79.5,774.00,1.4
2019-11-23,06:40:00,DRY,5.27,7.50,79.3,774.00,1.4
2019-11-23,06:45:00,DRY,5.70,7.40,81.0,774.00,1.3
2019-11-23,06:50:00,DRY,5.43,7.47,78.0,774.00,1.3
2019-11-23,06:55:00,DRY,7.00,7.75,76.0,774.00,1.8
2019-11-23,07:00:00,DRY,6.63,7.53,78.3,774.00,1.4
2019-11-23,07:05:00,DRY,6.90,7.60,77.0,774.00,1.4
2019-11-23,07:10:00,DRY,8.33,7.83,74.0,774.00,1.4
2019-11-23,07:15:00,DRY,7.85,7.75,76.0,774.00,1.5
2019-11-23,07:20:00,DRY,6.73,7.47,79.3,774.00,1.6
2019-11-23,07:25:00,DRY,7.20,7.10,81.0,774.00,2.5
2019-11-23,07:30:00,DRY,6.00,7.33,79.3,774.33,3.7
2019-11-23,07:35:00,DRY,7.10,7.00,82.0,774.50,5.2
2019-11-23,07:40:00,DRY,6.20,6.80,84.7,774.33,7.6
2019-11-23,07:45:00,DRY,5.35,6.80,86.0,775.00,10.1
2019-11-23,07:50:00,DRY,7.10,6.73,85.0,775.00,12.6
2019-11-23,07:55:00,DRY,7.00,6.95,84.5,775.00,14.4
2019-11-23,08:00:00,DRY,6.07,6.77,86.0,775.00,16.7
2019-11-23,08:05:00,DRY,5.40,6.85,86.0,775.00,18.4
2019-11-23,08:10:00,DRY,5.97,6.63,88.0,775.00,21.1
2019-11-23,08:15:00,DRY,6.45,6.35,90.5,775.00,23.6
2019-11-23,08:20:00,DRY,6.50,6.40,91.7,775.00,129.4
2019-11-23,08:25:00,DRY,6.20,6.40,91.0,775.00,183.3
2019-11-23,08:30:00,DRY,6.60,6.55,89.5,775.00,186.9
2019-11-23,08:35:00,DRY,6.05,6.50,90.0,775.00,208.6
2019-11-23,08:40:00,DRY,5.13,6.63,88.3,775.00,228.1
2019-11-23,08:45:00,DRY,6.30,6.75,88.0,775.00,247.0
2019-11-23,08:50:00,DRY,6.87,6.73,86.0,775.00,267.2
2019-11-23,08:55:00,DRY,6.75,7.15,80.0,775.00,287.2
2019-11-23,09:00:00,DRY,7.33,7.10,81.0,775.00,306.3
2019-11-23,09:05:00,DRY,8.20,7.25,78.5,775.00,325.9
2019-11-23,09:10:00,DRY,7.43,7.63,75.3,775.00,344.1
2019-11-23,09:15:00,DRY,8.60,7.85,73.0,775.00,363.4
2019-11-23,09:20:00,DRY,7.10,7.83,72.7,775.00,382.2
2019-11-23,09:25:00,DRY,7.75,7.80,74.0,775.00,401.2
2019-11-23,09:30:00,DRY,5.80,7.63,75.7,775.00,419.2
2019-11-23,09:35:00,DRY,6.35,7.70,76.5,775.00,437.6
2019-11-23,09:40:00,DRY,5.63,7.70,79.7,775.00,454.1
2019-11-23,09:45:00,DRY,5.00,7.35,89.0,775.00,416.9
2019-11-23,09:50:00,DRY,7.50,7.23,92.0,775.00,453.8
2019-11-23,09:55:00,DRY,6.05,7.15,91.0,775.00,446.9
2019-11-23,10:00:00,DRY,7.93,7.77,76.3,775.00,520.0
2019-11-23,10:05:00,DRY,6.25,8.05,73.0,775.50,534.7
2019-11-23,10:10:00,DRY,7.30,8.07,74.0,775.33,550.4
2019-11-23,10:15:00,DRY,5.85,8.00,75.0,775.50,565.8
2019-11-23,10:20:00,DRY,8.63,8.00,75.3,775.33,578.8
2019-11-23,10:25:00,DRY,8.80,8.00,77.0,775.50,593.3
2019-11-23,10:30:00,DRY,7.43,7.90,79.7,776.00,606.3
2019-11-23,10:35:00,DRY,7.05,7.85,80.5,776.00,619.9
2019-11-23,10:40:00,DRY,7.97,7.90,76.3,776.00,633.4
2019-11-23,10:45:00,DRY,7.55,7.95,74.0,776.00,645.0
2019-11-23,10:50:00,DRY,8.27,7.87,78.7,776.00,658.0
2019-11-23,10:55:00,DRY,7.95,7.70,79.5,776.00,669.9
2019-11-23,11:00:00,DRY,8.30,7.70,82.7,775.67,680.9
2019-11-23,11:05:00,DRY,8.05,7.35,88.5,776.00,696.6
2019-11-23,11:10:00,DRY,8.00,7.30,89.0,775.67,710.4
2019-11-23,11:15:00,DRY,6.80,7.15,92.0,775.50,758.8
2019-11-23,11:20:00,DRY,6.20,7.17,91.3,775.67,671.7
2019-11-23,11:25:00,DRY,6.05,7.10,90.5,775.50,629.9
2019-11-23,11:30:00,DRY,5.33,7.20,83.7,775.67,740.2
2019-11-23,11:35:00,DRY,6.50,7.20,80.5,775.00,748.9
2019-11-23,11:40:00,DRY,6.20,7.20,78.3,775.00,755.6
2019-11-23,11:45:00,DRY,6.15,7.25,76.5,775.00,763.1
2019-11-23,11:50:00,DRY,5.87,7.33,72.7,775.00,769.6
2019-11-23,11:55:00,DRY,6.60,7.25,72.5,775.00,776.0
2019-11-23,12:00:00,DRY,6.53,7.37,72.3,775.00,781.6
2019-11-23,12:05:00,DRY,5.65,7.35,72.0,775.00,786.3
2019-11-23,12:10:00,DRY,6.80,7.33,70.7,775.00,790.8
2019-11-23,12:15:00,DRY,6.25,7.25,71.5,775.00,794.6
2019-11-23,12:20:00,DRY,5.93,7.33,68.0,775.00,797.8
2019-11-23,12:25:00,DRY,5.80,7.40,69.5,775.00,800.0
2019-11-23,12:30:00,DRY,5.53,7.27,69.3,775.00,802.9
2019-11-23,12:35:00,DRY,5.70,7.40,68.5,775.00,805.2
2019-11-23,12:40:00,DRY,5.67,7.53,68.3,775.00,806.7
2019-11-23,12:45:00,DRY,6.00,7.60,67.5,775.00,808.2
2019-11-23,12:50:00,DRY,4.83,7.53,68.0,775.00,808.5
2019-11-23,12:55:00,DRY,5.40,7.50,69.5,775.00,807.8
2019-11-23,13:00:00,DRY,5.10,7.53,71.3,775.00,808.1
2019-11-23,13:05:00,DRY,5.75,7.60,70.0,775.00,807.6
2019-11-23,13:10:00,DRY,5.97,7.53,68.7,775.00,806.3
2019-11-23,13:15:00,DRY,5.85,7.65,65.5,775.00,804.4
2019-11-23,13:20:00,DRY,6.97,7.50,66.0,775.00,802.3
2019-11-23,13:25:00,DRY,6.40,7.55,66.0,775.00,799.1
2019-11-23,13:30:00,DRY,6.20,7.60,66.0,775.00,797.7
2019-11-23,13:35:00,DRY,5.90,7.70,63.0,775.00,793.6
2019-11-23,13:40:00,DRY,5.90,7.60,63.7,775.00,788.5
2019-11-23,13:45:00,DRY,6.80,7.65,63.5,775.00,784.2
2019-11-23,13:50:00,DRY,6.63,7.57,63.7,775.00,779.2
2019-11-23,13:55:00,DRY,6.00,7.45,63.5,774.50,772.8
2019-11-23,14:00:00,DRY,5.87,7.63,63.7,775.00,767.1
2019-11-23,14:05:00,DRY,6.05,7.80,61.0,774.50,760.5
2019-11-23,14:10:00,DRY,6.07,7.57,64.0,774.00,753.1
2019-11-23,14:15:00,DRY,5.90,7.50,65.0,774.00,745.9
2019-11-23,14:20:00,DRY,5.47,7.73,63.3,774.00,738.2
2019-11-23,14:25:00,DRY,6.85,7.55,64.0,774.00,730.0
2019-11-23,14:30:00,DRY,6.47,7.53,63.7,774.00,720.8
2019-11-23,14:35:00,DRY,6.35,7.45,64.0,774.00,711.1
2019-11-23,14:40:00,DRY,6.40,7.57,63.3,774.00,701.3
2019-11-23,14:45:00,DRY,4.95,7.45,64.0,774.00,691.3
2019-11-23,14:50:00,DRY,6.87,7.50,63.7,774.00,680.4
2019-11-23,14:55:00,DRY,6.00,7.35,64.0,774.00,669.4
2019-11-23,15:00:00,DRY,6.03,7.37,63.3,774.00,657.9
2019-11-23,15:05:00,DRY,5.15,7.20,64.0,774.00,644.6
2019-11-23,15:10:00,DRY,5.97,7.20,64.7,774.00,632.9
2019-11-23,15:15:00,DRY,5.35,7.15,65.0,774.00,619.7
2019-11-23,15:20:00,DRY,6.77,7.10,64.0,774.00,606.2
2019-11-23,15:25:00,DRY,6.85,7.00,63.5,774.00,592.8
2019-11-23,15:30:00,DRY,6.33,7.03,63.7,774.00,578.0
2019-11-23,15:35:00,DRY,5.85,7.20,62.5,774.00,563.7
2019-11-23,15:40:00,DRY,6.27,7.03,63.0,774.00,548.8
2019-11-23,15:45:00,DRY,5.60,6.90,64.0,774.00,533.1
2019-11-23,15:50:00,DRY,5.70,6.87,64.0,774.00,516.9
2019-11-23,15:55:00,DRY,5.35,6.65,64.0,774.00,500.4
2019-11-23,16:00:00,DRY,4.90,6.67,64.3,774.00,483.3
2019-11-23,16:05:00,DRY,4.60,6.60,64.0,774.00,466.2
2019-11-23,16:10:00,DRY,5.37,6.60,65.0,774.00,448.4
2019-11-23,16:15:00,DRY,6.50,6.45,65.0,774.00,430.6
2019-11-23,16:20:00,DRY,5.53,6.27,66.0,774.00,412.3
2019-11-23,16:25:00,DRY,6.70,6.10,67.0,774.00,394.7
2019-11-23,16:30:00,DRY,6.03,6.00,66.7,774.00,375.1
2019-11-23,16:35:00,DRY,5.60,5.90,68.0,774.00,356.4
2019-11-23,16:40:00,DRY,6.30,5.90,68.0,774.00,338.0
2019-11-23,16:45:00,DRY,5.00,5.90,65.0,774.00,318.1
2019-11-23,16:50:00,DRY,6.33,6.13,59.3,774.00,299.8
2019-11-23,16:55:00,DRY,5.00,5.85,67.5,774.00,279.9
2019-11-23,17:00:00,DRY,6.57,6.33,45.7,774.00,261.4
2019-11-23,17:05:00,DRY,3.20,6.65,47.5,774.00,242.1
2019-11-23,17:10:00,DRY,4.90,5.90,56.0,774.00,221.9
2019-11-23,17:15:00,DRY,5.80,5.85,53.0,774.00,203.8
2019-11-23,17:20:00,DRY,5.00,6.07,44.0,774.00,185.4
2019-11-23,17:25:00,DRY,4.95,6.10,43.0,774.00,166.4
2019-11-23,17:30:00,DRY,4.60,5.90,46.0,774.00,147.7
2019-11-23,17:35:00,DRY,4.45,5.70,53.0,774.00,123.5
2019-11-23,17:40:00,DRY,4.90,5.63,47.7,774.00,99.3
2019-11-23,17:45:00,DRY,5.50,5.80,44.0,774.00,76.4
2019-11-23,17:50:00,DRY,4.90,6.07,35.7,774.00,56.9
2019-11-23,17:55:00,DRY,4.55,6.50,33.0,774.00,40.5
2019-11-23,18:00:00,DRY,4.63,6.97,21.3,774.00,27.3
2019-11-23,18:05:00,DRY,4.90,6.70,25.5,774.00,18.2
2019-11-23,18:10:00,DRY,4.47,6.33,30.7,774.00,14.4
2019-11-23,18:15:00,DRY,3.90,6.40,28.5,774.00,10.4
2019-11-23,18:20:00,DRY,3.77,6.10,29.7,774.00,4.9
2019-11-23,18:25:00,DRY,4.40,6.10,26.5,774.00,2.6
2019-11-23,18:30:00,DRY,3.87,6.20,27.0,774.00,1.6
2019-11-23,18:35:00,DRY,4.70,6.30,21.5,774.00,1.2
2019-11-23,18:40:00,DRY,4.63,6.73,20.0,774.67,1.6
2019-11-23,18:45:00,DRY,6.40,7.60,13.5,774.50,0.9
2019-11-23,18:50:00,DRY,6.23,8.00,10.3,775.00,1.4
2019-11-23,18:55:00,DRY,5.65,8.00,10.5,775.00,1.6
2019-11-23,19:00:00,DRY,5.93,8.13,11.3,774.67,1.1
2019-11-23,19:05:00,DRY,6.45,8.05,10.0,775.00,0.9
2019-11-23,19:10:00,DRY,5.63,7.97,10.7,775.00,1.3
2019-11-23,19:15:00,DRY,5.90,8.00,9.5,775.00,1.2
2019-11-23,19:20:00,DRY,6.77,8.00,10.3,775.00,1.2
2019-11-23,19:25:00,DRY,5.70,8.10,11.0,775.00,1.4
2019-11-23,19:30:00,DRY,5.87,7.90,10.3,775.00,1.1
2019-11-23,19:35:00,DRY,6.10,8.15,10.5,775.00,0.9
2019-11-23,19:40:00,DRY,5.50,8.20,9.3,775.00,1.1
2019-11-23,19:45:00,DRY,6.30,8.40,10.0,775.00,1.0
2019-11-23,19:50:00,DRY,4.73,8.23,9.0,775.00,0.6
2019-11-23,19:55:00,DRY,4.85,8.25,9.0,775.00,1.4
2019-11-23,20:00:00,DRY,4.10,8.07,10.0,775.00,1.0
2019-11-23,20:05:00,DRY,3.65,8.25,10.0,775.00,1.2
2019-11-23,20:10:00,DRY,3.47,8.83,8.3,775.00,1.1
2019-11-23,20:15:00,DRY,5.00,8.90,8.0,775.00,0.8
2019-11-23,20:20:00,DRY,4.10,9.20,8.0,775.00,1.1
2019-11-23,20:25:00,DRY,3.20,8.90,8.5,775.00,1.1
2019-11-23,20:30:00,DRY,3.40,9.03,7.7,775.00,0.9
2019-11-23,20:35:00,DRY,2.90,9.50,7.0,775.00,1.8
2019-11-23,20:40:00,DRY,3.80,9.63,7.0,775.00,1.1
2019-11-23,20:45:00,DRY,4.05,9.55,7.5,775.00,1.1
2019-11-23,20:50:00,DRY,4.47,9.10,8.0,775.00,1.2
2019-11-23,20:55:00,DRY,4.10,8.80,8.5,775.00,1.6
2019-11-23,21:00:00,DRY,4.43,8.90,8.0,775.00,1.7
2019-11-23,21:05:00,DRY,5.55,9.20,8.0,775.00,1.2
2019-11-23,21:10:00,DRY,4.90,8.90,8.0,775.00,1.1
2019-11-23,21:15:00,DRY,4.90,9.00,9.0,775.00,1.2
2019-11-23,21:20:00,DRY,5.63,8.90,8.3,775.00,1.1
2019-11-23,21:25:00,DRY,5.10,8.90,8.0,775.00,0.8
2019-11-23,21:30:00,DRY,4.37,8.90,9.0,775.00,1.2
2019-11-23,21:35:00,DRY,5.15,8.55,8.0,775.00,1.1
2019-11-23,21:40:00,DRY,5.60,8.60,8.3,775.00,1.4
2019-11-23,21:45:00,DRY,5.10,8.25,7.5,775.00,1.1
2019-11-23,21:50:00,DRY,6.63,8.03,6.7,775.00,1.0
2019-11-23,21:55:00,DRY,6.25,8.00,7.0,775.00,1.2
2019-11-23,22:00:00,DRY,6.03,8.10,6.3,775.00,1.3
2019-11-23,22:05:00,DRY,7.10,8.15,7.5,775.00,1.0
2019-11-23,22:10:00,DRY,6.33,8.23,11.3,775.33,1.2
2019-11-23,22:15:00,DRY,7.60,8.25,13.5,775.50,1.1
2019-11-23,22:20:00,DRY,6.27,7.93,13.3,775.00,1.2
2019-11-23,22:25:00,DRY,7.25,7.85,12.0,775.00,1.4
2019-11-23,22:30:00,DRY,6.57,7.67,19.7,775.00,1.5
2019-11-23,22:35:00,DRY,6.30,7.55,25.5,775.00,1.8
2019-11-23,22:40:00,DRY,6.70,7.00,35.7,775.00,1.2
2019-11-23,22:45:00,DRY,6.95,6.55,36.0,775.00,1.1
2019-11-23,22:50:00,DRY,7.33,6.93,34.7,775.00,1.4
2019-11-23,22:55:00,DRY,6.55,6.75,39.5,775.00,1.2
2019-11-23,23:00:00,DRY,6.33,7.10,34.0,775.00,1.2
2019-11-23,23:05:00,DRY,6.35,7.30,35.0,775.00,1.4
2019-11-23,23:10:00,DRY,5.50,7.30,35.0,775.00,1.0
2019-11-23,23:15:00,DRY,5.45,7.30,36.0,775.00,1.1
2019-11-23,23:20:00,DRY,7.25,7.35,34.5,775.00,1.4
2019-11-23,23:25:00,DRY,6.65,7.45,37.5,775.00,0.9
2019-11-23,23:30:00,DRY,6.43,7.47,35.7,775.00,0.6
2019-11-23,23:35:00,DRY,6.30,7.65,34.5,775.00,1.4
2019-11-23,23:40:00,DRY,6.10,7.63,34.3,775.00,1.3
2019-11-23,23:45:00,DRY,6.25,7.40,37.0,775.00,1.1
2019-11-23,23:50:00,DRY,6.33,7.37,38.0,775.00,1.2
2019-11-23,23:55:00,DRY,5.30,7.55,34.5,775.00,1.1
2019-11-24,00:00:00,DRY,4.67,7.60,37.0,775.00,1.2
2019-11-24,00:05:00,DRY,5.50,7.55,38.5,775.00,0.9
2019-11-24,00:10:00,DRY,4.40,7.50,35.0,775.00,1.0
2019-11-24,00:15:00,DRY,4.30,7.40,37.5,775.00,1.4
2019-11-24,00:20:00,DRY,5.90,7.47,38.0,775.00,1.1
2019-11-24,00:25:00,DRY,4.20,7.50,41.5,775.00,1.3
2019-11-24,00:30:00,DRY,4.93,7.47,36.3,775.00,1.0
2019-11-24,00:35:00,DRY,4.40,7.30,34.5,775.00,1.1
2019-11-24,00:40:00,DRY,4.73,7.07,36.7,775.00,1.8
2019-11-24,00:45:00,DRY,4.05,7.25,39.0,775.00,1.1
2019-11-24,00:50:00,DRY,3.37,6.80,39.0,775.00,1.1
2019-11-24,00:55:00,DRY,4.30,6.65,42.0,775.00,1.1
2019-11-24,01:00:00,DRY,4.73,6.70,45.7,775.00,0.9
2019-11-24,01:05:00,DRY,6.50,6.90,52.5,775.00,1.3
2019-11-24,01:10:00,DRY,5.17,6.90,49.0,775.00,1.4
2019-11-24,01:15:00,DRY,4.50,6.50,44.5,775.00,1.1
2019-11-24,01:20:00,DRY,6.00,6.40,49.7,775.00,1.1
2019-11-24,01:25:00,DRY,6.40,6.95,57.0,775.00,1.3
2019-11-24,01:30:00,DRY,4.97,6.73,56.3,775.00,1.2
2019-11-24,01:35:00,DRY,5.40,6.95,52.5,775.00,1.0
2019-11-24,01:40:00,DRY,5.43,6.70,48.3,775.00,1.9
2019-11-24,01:45:00,DRY,5.10,7.00,47.5,774.00,1.4
2019-11-24,01:50:00,DRY,7.00,6.93,54.0,774.00,1.0
2019-11-24,01:55:00,DRY,6.55,7.05,56.5,774.00,1.2
2019-11-24,02:00:00,DRY,5.67,6.83,55.7,774.33,1.3
2019-11-24,02:05:00,DRY,5.55,6.95,54.5,774.00,1.6
2019-11-24,02:10:00,DRY,5.73,6.77,52.3,774.00,1.1
2019-11-24,02:15:00,DRY,5.90,6.75,46.5,774.00,1.8
2019-11-24,02:20:00,DRY,6.33,6.90,57.3,774.00,1.6
2019-11-24,02:25:00,DRY,5.95,7.05,58.5,774.00,1.1
2019-11-24,02:30:00,DRY,5.30,6.90,58.3,774.00,1.5
2019-11-24,02:35:00,DRY,6.10,6.85,55.5,774.00,1.1
2019-11-24,02:40:00,DRY,4.97,6.87,45.3,774.00,1.3
2019-11-24,02:45:00,DRY,5.90,6.85,51.0,774.00,1.4
2019-11-24,02:50:00,DRY,6.07,6.83,46.0,774.00,1.3
2019-11-24,02:55:00,DRY,5.50,6.80,34.5,774.00,1.5
2019-11-24,03:00:00,DRY,6.00,6.87,43.0,774.00,1.3
2019-11-24,03:05:00,DRY,6.25,7.00,56.5,774.00,1.2
2019-11-24,03:10:00,DRY,6.80,7.20,59.3,774.00,0.8
2019-11-24,03:15:00,DRY,6.20,7.00,53.0,774.00,0.9
2019-11-24,03:20:00,DRY,5.73,6.97,42.3,774.00,1.1
2019-11-24,03:25:00,DRY,5.95,7.10,41.5,774.00,1.2
2019-11-24,03:30:00,DRY,5.80,6.90,39.7,774.00,1.4
2019-11-24,03:35:00,DRY,4.75,6.95,46.0,774.00,1.3
2019-11-24,03:40:00,DRY,5.93,6.83,44.7,774.00,1.4
2019-11-24,03:45:00,DRY,7.05,6.80,50.0,774.00,1.3
2019-11-24,03:50:00,DRY,5.07,6.90,54.0,774.00,1.1
2019-11-24,03:55:00,DRY,6.25,7.30,56.5,774.00,1.2
2019-11-24,04:00:00,DRY,6.97,7.37,61.0,774.00,1.4
2019-11-24,04:05:00,DRY,5.85,7.35,60.5,774.00,1.1
2019-11-24,04:10:00,DRY,7.13,7.57,59.3,774.00,1.3
2019-11-24,04:15:00,DRY,5.65,7.60,59.0,774.00,1.7
2019-11-24,04:20:00,DRY,6.57,7.70,57.7,774.00,1.7
2019-11-24,04:25:00,DRY,6.30,7.50,61.0,774.00,1.8
2019-11-24,04:30:00,DRY,6.67,7.47,60.3,774.00,1.5
2019-11-24,04:35:00,DRY,6.00,7.70,55.5,774.00,2.0
2019-11-24,04:40:00,DRY,6.47,7.70,54.0,774.00,1.0
2019-11-24,04:45:00,DRY,5.95,7.70,52.0,774.00,1.2
2019-11-24,04:50:00,DRY,5.53,7.90,49.0,774.00,1.3
2019-11-24,04:55:00,DRY,5.35,8.10,45.5,774.00,1.0
2019-11-24,05:00:00,DRY,6.67,8.10,45.0,774.00,1.1
2019-11-24,05:05:00,DRY,6.40,8.15,44.5,774.00,1.1
2019-11-24,05:10:00,DRY,5.97,8.27,42.0,774.00,1.1
2019-11-24,05:15:00,DRY,5.90,8.25,43.5,774.00,1.6
2019-11-24,05:20:00,DRY,6.13,8.30,42.0,774.00,0.6
2019-11-24,05:25:00,DRY,5.15,8.50,40.0,774.00,1.1
2019-11-24,05:30:00,DRY,5.30,8.47,38.7,774.00,0.9
2019-11-24,05:35:00,DRY,5.05,8.50,38.0,774.00,1.9
2019-11-24,05:40:00,DRY,3.53,8.50,38.3,774.00,0.7
2019-11-24,05:45:00,DRY,4.60,8.90,32.5,774.00,1.0
2019-11-24,05:50:00,DRY,4.93,9.00,31.3,774.00,1.0
2019-11-24,05:55:00,DRY,5.00,8.85,31.5,774.00,1.5
2019-11-24,06:00:00,DRY,5.47,8.97,29.0,774.00,1.4
2019-11-24,06:05:00,DRY,3.90,8.75,31.0,774.00,1.1
2019-11-24,06:10:00,DRY,5.57,8.90,29.0,774.00,1.4
2019-11-24,06:15:00,DRY,4.75,8.65,31.5,774.00,2.1
2019-11-24,06:20:00,DRY,4.17,8.53,31.3,774.00,1.3
2019-11-24,06:25:00,DRY,5.55,8.90,27.0,774.00,1.2
2019-11-24,06:30:00,DRY,4.07,8.87,26.7,774.00,1.1
2019-11-24,06:35:00,DRY,3.40,9.20,20.5,774.00,1.1
2019-11-24,06:40:00,DRY,1.83,10.03,18.3,774.00,1.6
2019-11-24,06:45:00,DRY,2.35,10.05,16.5,774.00,1.1
2019-11-24,06:50:00,DRY,2.57,10.23,16.0,774.00,1.2
2019-11-24,06:55:00,DRY,0.60,10.00,18.0,774.00,1.6
2019-11-24,07:00:00,DRY,2.93,10.03,18.0,774.00,1.4
2019-11-24,07:05:00,DRY,0.70,10.00,15.5,774.00,1.2
2019-11-24,07:10:00,DRY,1.40,9.90,16.7,774.00,1.5
2019-11-24,07:15:00,DRY,1.75,9.65,19.5,774.00,0.5
2019-11-24,07:20:00,DRY,3.30,9.63,18.0,774.00,1.8
2019-11-24,07:25:00,DRY,3.75,9.65,22.0,774.00,2.8
2019-11-24,07:30:00,DRY,3.53,9.37,21.3,774.67,3.4
2019-11-24,07:35:00,DRY,3.50,9.95,17.5,774.50,5.3
2019-11-24,07:40:00,DRY,2.77,10.77,14.0,774.67,7.2
2019-11-24,07:45:00,DRY,4.45,10.50,14.0,775.00,9.8
2019-11-24,07:50:00,DRY,3.47,10.93,13.3,775.00,11.8
2019-11-24,07:55:00,DRY,5.00,11.35,10.0,775.00,14.8
2019-11-24,08:00:00,DRY,5.57,11.47,10.7,775.00,17.5
2019-11-24,08:05:00,DRY,4.55,11.35,11.0,775.00,19.0
2019-11-24,08:10:00,DRY,4.67,11.17,10.7,775.00,21.8
2019-11-24,08:15:00,DRY,4.90,11.20,11.5,775.00,23.6
2019-11-24,08:20:00,DRY,3.83,11.17,12.0,775.00,94.2
2019-11-24,08:25:00,DRY,4.15,11.10,12.0,775.00,169.2
2019-11-24,08:30:00,DRY,3.90,11.13,11.7,775.00,189.8
2019-11-24,08:35:00,DRY,4.40,11.25,11.0,775.00,210.0
2019-11-24,08:40:00,DRY,3.87,11.30,10.0,775.00,230.2
2019-11-24,08:45:00,DRY,5.15,11.55,9.5,775.00,249.9
2019-11-24,08:50:00,DRY,3.53,12.07,9.0,775.00,270.2
2019-11-24,08:55:00,DRY,4.95,11.95,8.5,775.00,290.0
2019-11-24,09:00:00,DRY,3.23,11.73,8.7,775.00,308.8
2019-11-24,09:05:00,DRY,3.60,11.25,8.5,775.00,330.0
2019-11-24,09:10:00,DRY,4.10,11.50,8.0,775.00,348.7
2019-11-24,09:15:00,DRY,4.00,12.25,6.5,775.00,368.2
2019-11-24,09:20:00,DRY,3.97,12.23,6.3,775.00,387.6
2019-11-24,09:25:00,DRY,3.50,12.25,6.5,775.00,406.9
2019-11-24,09:30:00,DRY,4.23,12.27,7.3,775.00,425.4
2019-11-24,09:35:00,DRY,3.00,12.55,6.0,775.00,444.1
2019-11-24,09:40:00,DRY,4.23,12.63,8.3,775.00,458.5
2019-11-24,09:45:00,DRY,3.05,12.70,7.5,775.00,469.1
2019-11-24,09:50:00,DRY,1.80,12.73,9.7,775.00,495.2
2019-11-24,09:55:00,DRY,2.60,12.70,7.0,775.00,516.1
2019-11-24,10:00:00,DRY,3.63,12.67,6.7,775.00,526.3
2019-11-24,10:05:00,DRY,2.70,12.85,7.0,775.00,538.1
2019-11-24,10:10:00,DRY,2.23,12.90,6.7,775.00,565.2
2019-11-24,10:15:00,DRY,3.90,13.15,7.0,775.00,581.2
2019-11-24,10:20:00,DRY,3.70,13.07,8.3,775.00,600.2
2019-11-24,10:25:00,DRY,2.85,12.85,14.0,775.00,595.8
2019-11-24,10:30:00,DRY,3.50,13.03,8.0,775.00,588.9
2019-11-24,10:35:00,DRY,2.00,13.05,18.0,775.00,611.7
2019-11-24,10:40:00,DRY,2.13,12.93,19.7,775.33,650.6
2019-11-24,10:45:00,DRY,0.50,13.15,22.0,775.00,666.6
2019-11-24,10:50:00,DRY,2.50,12.80,23.0,775.00,663.6
2019-11-24,10:55:00,DRY,2.05,12.75,24.5,775.00,667.7
2019-11-24,11:00:00,DRY,1.60,12.80,21.3,775.00,701.4
2019-11-24,11:05:00,DRY,0.95,13.40,19.5,775.00,721.9
2019-11-24,11:10:00,DRY,2.17,13.43,15.0,775.00,650.2
2019-11-24,11:15:00,DRY,3.00,12.65,21.5,775.00,614.9
2019-11-24,11:20:00,DRY,3.77,12.77,15.7,775.00,736.9
2019-11-24,11:25:00,DRY,4.05,12.90,16.5,775.00,748.8
2019-11-24,11:30:00,DRY,3.37,12.97,15.0,775.00,706.1
2019-11-24,11:35:00,DRY,2.55,13.00,19.5,775.00,588.3
2019-11-24,11:40:00,DRY,3.07,12.97,17.3,775.00,635.5
2019-11-24,11:45:00,DRY,1.20,13.15,14.5,775.00,622.5
2019-11-24,11:50:00,DRY,3.87,13.23,16.3,775.00,751.1
2019-11-24,11:55:00,DRY,2.30,13.35,17.0,775.00,732.3
2019-11-24,12:00:00,DRY,2.63,13.60,19.7,775.00,782.8
2019-11-24,12:05:00,DRY,2.80,13.65,23.5,775.00,809.5
2019-11-24,12:10:00,DRY,2.53,13.60,24.7,775.00,811.6
2019-11-24,12:15:00,DRY,1.75,13.35,25.0,775.00,813.2
2019-11-24,12:20:00,DRY,3.13,13.03,28.0,775.00,806.1
2019-11-24,12:25:00,DRY,1.70,13.10,29.0,775.00,816.6
2019-11-24,12:30:00,DRY,2.70,12.97,34.3,775.00,816.4
2019-11-24,12:35:00,DRY,1.60,13.20,30.5,775.00,825.2
2019-11-24,12:40:00,DRY,1.60,13.60,33.3,775.00,825.7
2019-11-24,12:45:00,DRY,2.35,13.70,27.5,775.00,829.0
2019-11-24,12:50:00,DRY,1.77,13.80,29.0,775.00,830.6
2019-11-24,12:55:00,DRY,1.80,13.55,31.5,774.50,799.2
2019-11-24,13:00:00,DRY,2.03,13.47,34.3,774.00,828.5
2019-11-24,13:05:00,DRY,2.25,13.45,34.5,774.00,828.4
2019-11-24,13:10:00,DRY,2.73,13.37,34.7,774.00,823.3
2019-11-24,13:15:00,DRY,2.05,13.70,29.5,774.50,779.9
2019-11-24,13:20:00,DRY,4.27,13.20,27.3,774.33,810.4
2019-11-24,13:25:00,DRY,1.75,13.85,27.5,775.00,828.8
2019-11-24,13:30:00,DRY,2.80,13.60,24.0,774.00,817.9
2019-11-24,13:35:00,DRY,2.90,13.20,22.0,774.00,731.4
2019-11-24,13:40:00,DRY,3.13,12.37,23.3,774.33,736.7
2019-11-24,13:45:00,DRY,2.75,12.55,25.5,774.00,781.0
2019-11-24,13:50:00,DRY,1.00,13.23,25.3,774.00,751.8
2019-11-24,13:55:00,DRY,1.05,14.15,26.0,774.00,741.0
2019-11-24,14:00:00,DRY,1.73,13.87,24.0,774.00,732.9
2019-11-24,14:05:00,DRY,2.25,13.65,25.0,774.00,669.2
2019-11-24,14:10:00,DRY,2.50,13.43,28.7,774.00,648.0
2019-11-24,14:15:00,DRY,1.55,13.50,30.0,774.00,617.6
2019-11-24,14:20:00,DRY,1.03,13.57,32.7,774.00,592.6
2019-11-24,14:25:00,DRY,2.15,13.60,30.5,774.00,609.5
2019-11-24,14:30:00,DRY,1.73,13.53,30.7,774.00,619.4
2019-11-24,14:35:00,DRY,1.60,13.15,30.5,774.00,664.8
2019-11-24,14:40:00,DRY,2.07,13.00,30.3,774.00,691.5
2019-11-24,14:45:00,DRY,1.20,13.00,27.5,774.00,727.9
2019-11-24,14:50:00,DRY,1.70,13.50,18.7,774.00,715.0
2019-11-24,14:55:00,DRY,3.00,13.05,26.0,774.00,606.3
2019-11-24,15:00:00,DRY,2.40,12.67,26.7,774.00,523.0
2019-11-24,15:05:00,DRY,2.65,13.00,20.5,774.00,483.9
2019-11-24,15:10:00,DRY,3.00,12.80,24.7,774.00,468.5
2019-11-24,15:15:00,DRY,2.85,12.75,26.5,774.00,458.8
2019-11-24,15:20:00,DRY,3.07,12.90,20.7,774.00,435.5
2019-11-24,15:25:00,DRY,3.35,12.60,17.5,774.00,401.6
2019-11-24,15:30:00,DRY,4.13,12.47,19.0,774.00,456.6
2019-11-24,15:35:00,DRY,3.70,12.45,19.5,774.00,514.9
2019-11-24,15:40:00,DRY,3.47,12.43,17.7,774.00,468.2
2019-11-24,15:45:00,DRY,2.15,12.45,17.0,774.00,465.6
2019-11-24,15:50:00,DRY,2.47,12.37,19.3,774.00,369.0
2019-11-24,15:55:00,DRY,1.65,12.25,22.5,774.00,377.5
2019-11-24,16:00:00,DRY,0.90,12.47,16.0,774.00,387.9
2019-11-24,16:05:00,DRY,1.35,12.75,14.5,774.00,452.8
2019-11-24,16:10:00,DRY,1.83,12.87,19.7,774.00,474.0
2019-11-24,16:15:00,DRY,1.80,13.00,20.0,774.00,472.1
2019-11-24,16:20:00,DRY,2.30,13.23,15.0,774.00,475.1
2019-11-24,16:25:00,DRY,2.80,13.40,15.5,774.00,439.9
2019-11-24,16:30:00,DRY,1.97,13.27,16.7,774.00,287.0
2019-11-24,16:35:00,DRY,2.65,12.95,19.5,774.00,362.4
2019-11-24,16:40:00,DRY,1.90,12.67,23.7,774.00,276.8
2019-11-24,16:45:00,DRY,2.70,12.30,23.0,774.00,241.4
2019-11-24,16:50:00,DRY,2.33,12.37,19.3,774.00,225.1
2019-11-24,16:55:00,DRY,2.10,12.50,20.0,774.00,181.6
2019-11-24,17:00:00,DRY,2.63,12.10,25.7,774.00,194.9
2019-11-24,17:05:00,DRY,2.50,11.90,26.5,774.00,191.6
2019-11-24,17:10:00,DRY,1.80,11.57,26.0,774.00,193.6
2019-11-24,17:15:00,DRY,1.85,11.55,18.0,774.00,150.3
2019-11-24,17:20:00,DRY,1.67,11.90,13.0,774.00,168.3
2019-11-24,17:25:00,DRY,1.85,12.05,16.5,774.00,108.8
2019-11-24,17:30:00,DRY,1.33,12.20,10.0,774.00,79.2
2019-11-24,17:35:00,DRY,2.30,12.05,13.0,774.00,55.5
2019-11-24,17:40:00,DRY,1.83,12.37,6.0,774.00,46.9
2019-11-24,17:45:00,DRY,2.10,12.40,5.0,774.00,39.1
2019-11-24,17:50:00,DRY,1.83,12.70,4.3,774.00,33.7